Theta_e
331 331 330 329 331 331 331 331 332 333 335 336 335 333 336 338 336 337 339 342 344 346 349 352 353 354 354 354 356 356 355 356
333 331 331 330 331 331 330 332 335 334 338 337 335 336 336 339 337 337 339 342 342 345 348 351 352 353 354 354 356 355 355 356
334 334 334 333 331 330 331 333 336 337 337 335 335 334 337 339 340 339 340 342 342 343 346 349 352 353 355 355 356 357 355 354
336 336 335 334 335 335 334 336 337 338 337 336 335 334 335 337 338 340 341 342 342 342 345 347 351 353 354 355 355 357 356 354
335 335 335 335 335 335 334 335 337 337 337 336 336 335 334 336 339 341 342 343 343 344 346 348 351 353 353 355 355 356 357 357
337 337 336 337 337 336 336 337 337 336 336 336 336 336 335 335 340 341 343 342 346 345 347 351 351 353 354 355 355 356 357 357
335 335 336 336 336 336 336 336 337 337 337 336 336 337 340 340 345 343 344 346 345 347 348 352 353 355 356 355 356 356 357 357
335 334 335 335 335 335 334 335 335 335 336 336 334 337 340 341 347 350 352 353 355 349 350 352 355 357 357 357 356 356 356 357
335 333 334 335 335 334 334 335 335 336 336 336 337 342 345 346 350 353 355 358 360 360 360 356 354 357 358 358 358 357 356 358
332 332 334 332 331 332 334 334 337 337 340 342 342 345 346 347 349 350 350 350 351 355 361 360 354 354 357 358 359 359 359 360
328 328 328 328 331 333 335 338 338 339 341 340 342 343 346 346 346 347 347 346 346 346 350 356 357 356 357 357 359 359 360 360
327 328 330 333 330 330 332 335 334 334 335 336 338 348 347 342 342 343 341 341 341 342 342 349 356 358 358 358 357 358 358 358
327 330 329 329 327 328 333 336 332 331 332 332 335 334 334 339 338 338 339 339 338 339 342 344 345 355 357 356 355 356 355 356
327 330 331 326 327 331 330 328 328 329 329 329 329 329 330 331 333 337 337 337 334 335 339 343 340 347 347 349 345 345 350 353
325 327 323 322 322 322 322 323 326 327 327 326 326 327 328 328 330 330 332 334 335 333 334 338 341 333 346 350 332 336 346 340
326 325 325 324 323 323 324 323 324 325 325 324 324 325 326 327 327 328 329 331 334 334 333 333 336 339 337 337 338 348 345 344
325 324 323 324 324 324 324 324 324 324 323 323 323 324 325 325 326 327 327 329 330 332 333 331 330 331 333 340 343 343 343 343
326 323 322 321 322 323 324 324 324 325 326 325 327 325 324 324 324 325 326 327 328 330 332 332 333 330 328 330 337 340 339 338
321 321 321 321 322 323 325 325 324 325 326 325 326 327 326 327 327 325 325 326 327 328 330 330 331 333 333 332 333 334 334 333
Wind_Speed
3 8 13 15 10 14 18 16 13 11 4 10 8 9 6 1 6 16 20 24 25 26 27 28 29 29 29 28 27 27 27 26
10 5 9 14 14 8 10 11 11 11 4 6 6 6 6 2 10 15 20 23 24 26 27 27 28 28 28 28 27 26 26 25
6 11 10 8 11 12 15 11 11 8 7 8 4 2 5 6 4 16 21 22 24 26 27 27 26 27 29 28 27 27 26 26
15 12 5 12 15 13 11 15 13 10 13 8 5 3 1 1 4 4 18 21 23 25 26 27 27 28 29 29 29 28 28 29
16 17 14 3 13 13 16 17 15 13 12 4 7 5 9 4 6 4 9 18 22 24 26 27 28 28 28 28 29 27 28 27
15 20 7 12 16 14 15 12 14 16 19 17 11 7 8 6 10 3 4 9 15 21 23 24 24 26 26 26 26 27 27 27
21 23 23 21 19 19 20 19 19 22 23 17 10 15 15 10 10 2 4 5 6 11 16 19 22 22 22 22 24 25 28 27
20 22 23 22 24 24 23 21 21 23 24 20 26 6 11 7 8 6 4 5 4 1 7 12 16 19 19 21 21 24 26 25
21 20 22 21 20 21 22 21 19 21 16 12 7 3 6 4 7 9 9 8 7 6 3 1 8 13 16 18 19 21 24 25
15 17 22 20 21 17 16 14 13 11 16 17 16 7 12 11 8 9 12 13 14 14 11 7 2 6 10 12 15 16 19 20
13 15 21 24 11 12 8 11 19 15 17 17 21 15 8 8 9 10 13 14 15 16 17 14 8 4 6 8 11 13 15 17
12 15 19 12 16 13 13 7 13 17 19 21 21 10 5 13 13 7 8 8 9 11 12 16 12 8 5 5 7 10 12 14
12 16 7 13 21 25 14 5 10 10 10 13 11 14 22 14 5 9 10 9 10 8 7 7 8 7 4 5 7 10 14 15
8 8 5 19 10 8 11 12 12 9 12 13 13 14 16 19 17 13 11 11 9 8 8 5 3 2 1 2 0 2 5 10
8 13 27 22 13 16 19 20 16 13 15 18 20 20 16 16 20 20 17 13 10 6 5 4 5 2 3 4 5 5 10 9
14 14 22 24 16 18 21 20 21 23 22 25 27 26 23 20 19 18 17 16 11 11 9 7 1 4 2 3 2 10 11 13
15 18 29 20 32 30 31 30 31 32 32 32 31 31 29 28 23 21 19 18 15 13 12 17 21 19 7 5 5 10 12 12
11 25 21 27 37 36 34 33 32 32 32 33 31 32 32 33 31 28 25 22 20 17 15 13 16 18 19 23 17 13 12 12
13 23 26 38 33 29 31 30 31 32 30 32 33 34 34 35 33 32 30 28 26 23 21 19 18 17 16 17 15 16 15 12
Wind_Direction
232 246 225 247 240 261 282 286 269 260 178 259 210 222 30 47 176 174 181 180 185 188 193 195 197 201 201 203 204 205 207 209
133 216 223 253 267 267 223 262 273 274 184 220 136 17 344 264 180 178 179 180 182 188 193 197 201 203 203 205 205 205 205 209
179 217 242 184 235 243 278 300 310 296 61 28 124 159 325 122 247 173 182 182 186 191 195 200 204 204 205 206 207 205 204 208
266 276 225 289 295 255 229 233 239 268 294 209 151 157 262 109 159 246 185 191 194 196 197 201 203 204 207 206 209 209 208 206
253 243 233 304 275 255 270 288 282 292 286 18 98 192 260 128 108 190 225 206 202 199 201 204 204 205 207 208 209 211 208 208
282 298 305 257 288 286 294 288 284 266 277 288 283 264 250 216 122 98 190 211 223 212 210 211 210 209 208 210 210 207 209 208
286 291 292 295 287 282 273 277 276 289 295 289 299 303 347 6 60 38 69 123 196 223 198 205 210 211 212 211 209 208 208 209
278 280 283 278 278 278 277 273 273 280 276 283 288 138 286 346 40 62 38 40 29 162 214 212 207 208 208 207 210 204 207 209
278 285 294 280 276 282 283 273 277 273 290 323 319 67 35 10 69 66 70 63 53 41 13 323 211 211 207 204 203 205 207 206
279 284 269 277 280 304 311 303 354 346 316 102 284 84 41 34 71 80 78 69 59 50 44 37 141 200 200 199 197 201 204 206
285 272 273 263 9 344 330 33 13 359 0 353 316 2 96 54 61 79 74 67 60 49 43 40 57 129 174 189 194 196 203 208
275 293 289 30 345 359 307 236 35 357 5 359 345 331 7 345 350 21 39 27 37 35 36 44 48 54 110 168 193 196 202 209
297 316 306 343 339 329 259 359 8 355 360 342 343 343 329 340 320 330 335 358 17 29 25 37 39 61 83 163 208 205 201 206
304 264 323 316 5 3 337 332 344 332 322 323 317 316 322 327 327 326 329 338 353 359 2 19 22 90 66 66 125 178 225 217
308 307 320 325 337 327 321 314 299 305 310 310 306 302 306 315 307 318 304 308 324 309 318 0 22 132 210 254 283 236 198 228
308 300 344 327 319 325 331 313 306 303 296 299 296 293 292 288 286 289 305 310 292 288 278 270 280 307 193 194 214 275 265 275
298 314 332 309 320 314 313 307 303 296 292 288 285 283 282 281 277 274 272 270 274 269 271 272 267 263 243 246 240 252 268 273
298 306 307 297 305 301 296 296 290 290 287 286 287 283 278 277 273 271 268 267 267 265 264 265 263 270 260 252 241 247 252 270
302 301 287 292 297 302 300 297 292 289 287 290 286 277 275 279 276 268 265 265 264 262 259 259 257 252 245 245 240 244 243 250